QPF
0.00 0.00 0.04 0.05 0.02 0.03 0.02 0.00 0.00 0.00 0.00 0.00 0.00 0.00 0.00 0.00 0.00 0.00 0.00 0.00 0.00 0.00 0.00 0.00 0.00 0.00 0.00 0.00 0.00 0.00 0.00 0.00 0.00 0.00 0.00 0.00 0.00 0.00 0.00 0.00 0.00 0.00 0.00 0.00 0.00 0.00 0.00 0.00 0.00
0.00 0.00 0.03 0.04 0.04 0.07 0.03 0.00 0.00 0.00 0.00 0.00 0.00 0.00 0.00 0.00 0.00 0.00 0.00 0.00 0.00 0.00 0.00 0.00 0.00 0.00 0.00 0.00 0.00 0.00 0.00 0.00 0.00 0.00 0.00 0.00 0.00 0.00 0.00 0.00 0.00 0.00 0.00 0.00 0.00 0.00 0.00 0.00 0.00
0.00 0.00 0.02 0.03 0.05 0.07 0.06 0.01 0.00 0.00 0.00 0.00 0.00 0.00 0.00 0.00 0.00 0.00 0.00 0.00 0.00 0.00 0.00 0.00 0.00 0.00 0.00 0.00 0.00 0.00 0.00 0.00 0.00 0.00 0.00 0.00 0.00 0.00 0.00 0.00 0.00 0.00 0.00 0.00 0.00 0.00 0.00 0.00 0.00
0.00 0.00 0.00 0.01 0.02 0.06 0.06 0.03 0.01 0.00 0.00 0.00 0.00 0.00 0.00 0.00 0.00 0.00 0.00 0.00 0.00 0.00 0.00 0.00 0.00 0.00 0.00 0.00 0.00 0.00 0.00 0.00 0.00 0.00 0.00 0.00 0.00 0.00 0.00 0.00 0.00 0.00 0.00 0.00 0.00 0.00 0.00 0.00 0.00
0.00 0.00 0.00 0.00 0.00 0.02 0.05 0.06 0.03 0.01 0.00 0.00 0.00 0.00 0.00 0.00 0.00 0.00 0.00 0.00 0.00 0.00 0.00 0.00 0.00 0.00 0.00 0.00 0.00 0.00 0.00 0.00 0.00 0.00 0.00 0.00 0.00 0.00 0.00 0.00 0.00 0.00 0.00 0.00 0.00 0.00 0.00 0.00 0.00
0.00 0.00 0.00 0.00 0.00 0.02 0.03 0.04 0.03 0.01 0.00 0.00 0.00 0.00 0.00 0.00 0.00 0.00 0.00 0.00 0.00 0.00 0.00 0.00 0.00 0.00 0.00 0.00 0.00 0.00 0.00 0.00 0.00 0.00 0.00 0.00 0.00 0.00 0.00 0.00 0.00 0.00 0.00 0.00 0.00 0.00 0.00 0.00 0.00
0.00 0.00 0.00 0.00 0.00 0.01 0.03 0.03 0.03 0.01 0.01 0.01 0.01 0.00 0.00 0.00 0.00 0.00 0.00 0.00 0.00 0.00 0.00 0.00 0.00 0.00 0.00 0.00 0.00 0.00 0.00 0.00 0.00 0.00 0.00 0.00 0.00 0.00 0.00 0.00 0.00 0.00 0.00 0.00 0.00 0.00 0.00 0.00 0.00
0.00 0.00 0.00 0.00 0.00 0.00 0.01 0.01 0.02 0.02 0.01 0.01 0.01 0.01 0.01 0.00 0.00 0.00 0.00 0.00 0.00 0.00 0.00 0.00 0.00 0.00 0.00 0.00 0.00 0.00 0.00 0.00 0.00 0.00 0.00 0.00 0.00 0.00 0.00 0.01 0.01 0.02 0.01 0.01 0.00 0.00 0.00 0.00 0.00
0.00 0.00 0.00 0.00 0.00 0.00 0.00 0.00 0.01 0.01 0.01 0.00 0.01 0.02 0.01 0.00 0.00 0.00 0.00 0.00 0.00 0.00 0.00 0.00 0.00 0.00 0.00 0.00 0.00 0.00 0.00 0.00 0.00 0.00 0.00 0.00 0.00 0.00 0.00 0.02 0.04 0.05 0.05 0.03 0.02 0.02 0.01 0.01 0.01
0.00 0.00 0.00 0.00 0.00 0.00 0.00 0.00 0.01 0.01 0.01 0.00 0.01 0.03 0.02 0.01 0.00 0.00 0.00 0.00 0.00 0.00 0.00 0.00 0.00 0.00 0.00 0.00 0.00 0.00 0.00 0.00 0.00 0.00 0.00 0.00 0.00 0.00 0.00 0.02 0.06 0.09 0.11 0.09 0.10 0.09 0.06 0.03 0.02
0.00 0.00 0.00 0.00 0.00 0.00 0.00 0.00 0.00 0.00 0.00 0.01 0.03 0.04 0.04 0.01 0.00 0.00 0.00 0.00 0.00 0.00 0.00 0.00 0.00 0.00 0.00 0.00 0.00 0.00 0.00 0.00 0.00 0.00 0.01 0.01 0.01 0.02 0.02 0.04 0.07 0.10 0.13 0.10 0.14 0.15 0.11 0.08 0.07
0.00 0.00 0.00 0.00 0.00 0.00 0.00 0.00 0.00 0.00 0.00 0.01 0.01 0.01 0.01 0.01 0.00 0.00 0.00 0.00 0.00 0.01 0.00 0.00 0.00 0.00 0.00 0.00 0.00 0.00 0.00 0.01 0.01 0.01 0.03 0.03 0.04 0.04 0.05 0.06 0.06 0.08 0.10 0.13 0.17 0.18 0.22 0.17 0.15
0.00 0.00 0.00 0.00 0.00 0.00 0.00 0.00 0.00 0.00 0.00 0.00 0.00 0.00 0.00 0.02 0.02 0.02 0.02 0.01 0.01 0.01 0.01 0.01 0.01 0.01 0.01 0.00 0.00 0.01 0.02 0.03 0.03 0.03 0.04 0.05 0.06 0.05 0.06 0.07 0.07 0.08 0.12 0.16 0.18 0.19 0.20 0.22 0.21
0.00 0.00 0.00 0.00 0.00 0.00 0.00 0.00 0.00 0.00 0.00 0.00 0.00 0.00 0.00 0.00 0.02 0.04 0.06 0.07 0.05 0.04 0.03 0.03 0.04 0.05 0.03 0.02 0.02 0.03 0.05 0.06 0.06 0.06 0.06 0.06 0.06 0.06 0.06 0.05 0.04 0.05 0.07 0.09 0.11 0.11 0.13 0.15 0.17
0.00 0.00 0.00 0.00 0.00 0.00 0.00 0.00 0.00 0.00 0.00 0.00 0.00 0.00 0.00 0.01 0.01 0.02 0.03 0.07 0.11 0.12 0.10 0.11 0.13 0.12 0.10 0.08 0.06 0.06 0.09 0.10 0.09 0.09 0.08 0.08 0.06 0.05 0.03 0.03 0.02 0.03 0.04 0.05 0.06 0.06 0.07 0.08 0.08
0.00 0.00 0.00 0.00 0.00 0.00 0.00 0.00 0.00 0.00 0.00 0.00 0.01 0.01 0.01 0.01 0.02 0.04 0.07 0.11 0.18 0.23 0.25 0.31 0.40 0.34 0.25 0.18 0.12 0.11 0.14 0.16 0.16 0.14 0.16 0.11 0.06 0.03 0.02 0.01 0.01 0.02 0.03 0.03 0.03 0.03 0.04 0.04 0.04
0.00 0.00 0.00 0.00 0.00 0.00 0.00 0.00 0.00 0.00 0.00 0.01 0.02 0.02 0.02 0.02 0.05 0.11 0.22 0.34 0.40 0.48 0.61 0.76 0.75 0.63 0.52 0.38 0.28 0.20 0.19 0.19 0.21 0.24 0.20 0.13 0.06 0.01 0.00 0.01 0.01 0.01 0.02 0.01 0.01 0.01 0.02 0.02 0.03
0.00 0.00 0.00 0.00 0.00 0.00 0.00 0.00 0.00 0.00 0.00 0.01 0.02 0.02 0.04 0.07 0.14 0.24 0.36 0.46 0.55 0.76 1.00 1.13 1.07 0.90 0.73 0.65 0.48 0.34 0.26 0.22 0.25 0.21 0.16 0.08 0.02 0.01 0.00 0.01 0.01 0.00 0.00 0.00 0.01 0.01 0.01 0.01 0.01
0.00 0.00 0.00 0.00 0.00 0.00 0.00 0.00 0.00 0.00 0.00 0.02 0.05 0.05 0.07 0.17 0.32 0.37 0.43 0.54 0.73 1.00 1.22 1.38 1.28 1.10 0.92 0.80 0.63 0.44 0.26 0.21 0.19 0.11 0.05 0.03 0.01 0.01 0.01 0.00 0.00 0.00 0.00 0.00 0.00 0.00 0.00 0.00 0.01
0.00 0.00 0.00 0.00 0.00 0.00 0.00 0.00 0.00 0.00 0.00 0.01 0.07 0.12 0.19 0.31 0.42 0.47 0.57 0.69 0.75 0.83 1.00 1.14 1.05 0.80 0.64 0.53 0.40 0.28 0.20 0.15 0.09 0.06 0.04 0.02 0.02 0.01 0.01 0.00 0.00 0.00 0.00 0.00 0.00 0.00 0.00 0.00 0.00
0.00 0.00 0.00 0.00 0.00 0.00 0.00 0.00 0.01 0.01 0.02 0.03 0.08 0.23 0.29 0.31 0.36 0.41 0.47 0.51 0.53 0.57 0.62 0.64 0.54 0.40 0.31 0.27 0.21 0.17 0.17 0.13 0.11 0.13 0.08 0.04 0.03 0.03 0.02 0.01 0.00 0.00 0.00 0.00 0.00 0.00 0.00 0.00 0.00
0.00 0.00 0.00 0.00 0.00 0.00 0.00 0.00 0.02 0.02 0.03 0.05 0.09 0.18 0.16 0.20 0.27 0.29 0.25 0.29 0.32 0.31 0.34 0.36 0.35 0.32 0.26 0.25 0.22 0.18 0.15 0.12 0.10 0.10 0.10 0.07 0.05 0.06 0.05 0.03 0.02 0.02 0.01 0.00 0.00 0.00 0.00 0.00 0.00
0.00 0.00 0.00 0.00 0.00 0.00 0.00 0.01 0.03 0.05 0.07 0.09 0.11 0.16 0.18 0.23 0.26 0.21 0.15 0.16 0.17 0.14 0.14 0.18 0.24 0.24 0.24 0.24 0.19 0.16 0.15 0.13 0.11 0.10 0.09 0.09 0.09 0.10 0.09 0.08 0.05 0.03 0.01 0.00 0.00 0.00 0.00 0.00 0.00
0.00 0.00 0.00 0.00 0.01 0.02 0.03 0.03 0.06 0.12 0.19 0.21 0.19 0.18 0.19 0.20 0.17 0.12 0.08 0.06 0.07 0.07 0.07 0.09 0.14 0.16 0.18 0.20 0.19 0.17 0.15 0.14 0.12 0.11 0.10 0.09 0.10 0.11 0.12 0.12 0.09 0.05 0.04 0.02 0.01 0.01 0.00 0.00 0.00
0.00 0.00 0.00 0.00 0.01 0.02 0.03 0.04 0.12 0.27 0.38 0.36 0.40 0.41 0.25 0.16 0.11 0.06 0.04 0.03 0.03 0.04 0.05 0.06 0.09 0.11 0.11 0.13 0.14 0.12 0.13 0.12 0.11 0.11 0.09 0.08 0.08 0.10 0.10 0.10 0.09 0.08 0.07 0.05 0.03 0.01 0.00 0.00 0.00
0.01 0.00 0.00 0.01 0.01 0.02 0.04 0.08 0.18 0.27 0.29 0.33 0.39 0.33 0.17 0.10 0.07 0.04 0.02 0.01 0.01 0.02 0.02 0.03 0.04 0.04 0.05 0.05 0.06 0.06 0.07 0.06 0.06 0.07 0.06 0.05 0.06 0.08 0.08 0.10 0.09 0.08 0.08 0.07 0.05 0.03 0.01 0.01 0.00
0.01 0.01 0.00 0.00 0.00 0.01 0.05 0.12 0.15 0.19 0.20 0.25 0.20 0.12 0.09 0.06 0.04 0.02 0.01 0.01 0.01 0.01 0.01 0.02 0.02 0.02 0.02 0.02 0.02 0.02 0.03 0.02 0.02 0.02 0.02 0.02 0.03 0.03 0.04 0.06 0.06 0.07 0.07 0.06 0.05 0.03 0.02 0.02 0.01
0.02 0.02 0.01 0.01 0.01 0.01 0.03 0.11 0.15 0.15 0.13 0.13 0.14 0.13 0.07 0.03 0.02 0.01 0.01 0.01 0.00 0.00 0.01 0.01 0.01 0.01 0.01 0.01 0.01 0.01 0.02 0.02 0.01 0.01 0.01 0.01 0.01 0.01 0.02 0.02 0.03 0.05 0.05 0.04 0.05 0.04 0.03 0.03 0.02
0.02 0.02 0.02 0.01 0.01 0.02 0.04 0.08 0.11 0.14 0.13 0.13 0.11 0.07 0.03 0.02 0.01 0.00 0.00 0.00 0.00 0.00 0.00 0.00 0.00 0.00 0.00 0.00 0.01 0.01 0.01 0.01 0.01 0.01 0.01 0.01 0.01 0.00 0.00 0.01 0.01 0.01 0.02 0.03 0.03 0.03 0.02 0.02 0.02
0.03 0.02 0.02 0.02 0.01 0.01 0.04 0.07 0.05 0.05 0.05 0.04 0.03 0.01 0.01 0.00 0.00 0.00 0.00 0.00 0.00 0.00 0.00 0.00 0.00 0.00 0.00 0.00 0.00 0.00 0.00 0.00 0.00 0.01 0.01 0.00 0.00 0.00 0.00 0.00 0.00 0.01 0.01 0.01 0.02 0.02 0.02 0.03 0.03
MSLP
1009.09 1010.38 1011.72 1012.86 1013.59 1013.78 1013.38 1012.51 1011.35 1010.15 1009.15 1008.53 1008.37 1008.63 1009.18 1009.83 1010.41 1010.76 1010.83 1010.67 1010.37 1010.07 1009.90 1009.95 1010.25 1010.73 1011.30 1011.84 1012.25 1012.49 1012.56 1012.53 1012.47 1012.46 1012.57 1012.80 1013.14 1013.51 1013.86 1014.13 1014.28 1014.34 1014.33 1014.31 1014.32 1014.40 1014.54 1014.73 1014.93
1009.46 1010.92 1012.34 1013.45 1014.04 1013.99 1013.34 1012.20 1010.80 1009.42 1008.32 1007.64 1007.47 1007.74 1008.31 1008.99 1009.59 1009.97 1010.10 1010.00 1009.79 1009.60 1009.55 1009.70 1010.07 1010.59 1011.17 1011.70 1012.09 1012.32 1012.40 1012.39 1012.38 1012.43 1012.60 1012.88 1013.23 1013.61 1013.93 1014.15 1014.27 1014.29 1014.27 1014.24 1014.25 1014.33 1014.47 1014.64 1014.81
1009.91 1011.48 1012.92 1013.94 1014.38 1014.14 1013.28 1011.96 1010.43 1008.97 1007.83 1007.17 1007.01 1007.30 1007.88 1008.55 1009.14 1009.51 1009.65 1009.60 1009.46 1009.35 1009.38 1009.61 1010.04 1010.58 1011.15 1011.66 1012.03 1012.24 1012.32 1012.34 1012.36 1012.45 1012.65 1012.94 1013.29 1013.63 1013.91 1014.08 1014.16 1014.16 1014.13 1014.12 1014.15 1014.24 1014.39 1014.55 1014.70
1010.36 1011.95 1013.33 1014.24 1014.52 1014.13 1013.14 1011.74 1010.19 1008.77 1007.70 1007.10 1007.00 1007.31 1007.87 1008.50 1009.03 1009.36 1009.48 1009.44 1009.34 1009.30 1009.41 1009.70 1010.16 1010.71 1011.27 1011.74 1012.07 1012.26 1012.33 1012.36 1012.40 1012.52 1012.72 1013.00 1013.31 1013.59 1013.81 1013.93 1013.98 1013.97 1013.95 1013.96 1014.03 1014.16 1014.32 1014.48 1014.62
1010.72 1012.23 1013.47 1014.23 1014.36 1013.86 1012.84 1011.47 1010.01 1008.72 1007.80 1007.32 1007.30 1007.62 1008.14 1008.70 1009.13 1009.39 1009.46 1009.42 1009.36 1009.38 1009.55 1009.90 1010.39 1010.94 1011.47 1011.90 1012.20 1012.36 1012.42 1012.45 1012.50 1012.62 1012.81 1013.05 1013.30 1013.52 1013.66 1013.73 1013.74 1013.73 1013.73 1013.79 1013.90 1014.07 1014.26 1014.44 1014.57
1010.92 1012.26 1013.29 1013.85 1013.85 1013.28 1012.28 1011.03 1009.76 1008.68 1007.95 1007.63 1007.69 1008.02 1008.49 1008.93 1009.26 1009.42 1009.44 1009.39 1009.37 1009.46 1009.70 1010.11 1010.63 1011.18 1011.69 1012.08 1012.33 1012.46 1012.51 1012.54 1012.60 1012.71 1012.89 1013.09 1013.28 1013.42 1013.50 1013.51 1013.49 1013.47 1013.49 1013.59 1013.76 1013.97 1014.20 1014.39 1014.53
1010.94 1012.02 1012.80 1013.14 1012.99 1012.39 1011.46 1010.37 1009.33 1008.50 1007.99 1007.83 1007.96 1008.28 1008.66 1008.99 1009.20 1009.27 1009.25 1009.21 1009.24 1009.41 1009.74 1010.22 1010.77 1011.33 1011.81 1012.16 1012.38 1012.49 1012.54 1012.58 1012.65 1012.77 1012.94 1013.11 1013.25 1013.33 1013.34 1013.29 1013.23 1013.20 1013.24 1013.37 1013.57 1013.83 1014.08 1014.30 1014.44
1010.83 1011.62 1012.10 1012.20 1011.91 1011.27 1010.43 1009.51 1008.70 1008.11 1007.80 1007.77 1007.95 1008.24 1008.53 1008.75 1008.85 1008.84 1008.80 1008.80 1008.91 1009.18 1009.60 1010.14 1010.73 1011.29 1011.74 1012.06 1012.26 1012.35 1012.41 1012.48 1012.59 1012.74 1012.93 1013.09 1013.21 1013.24 1013.20 1013.10 1013.00 1012.94 1012.97 1013.11 1013.33 1013.61 1013.88 1014.11 1014.26
1010.67 1011.15 1011.33 1011.20 1010.75 1010.08 1009.30 1008.54 1007.92 1007.53 1007.38 1007.43 1007.63 1007.87 1008.06 1008.18 1008.19 1008.15 1008.12 1008.18 1008.39 1008.76 1009.27 1009.87 1010.49 1011.03 1011.45 1011.74 1011.91 1012.00 1012.08 1012.20 1012.37 1012.58 1012.81 1013.01 1013.13 1013.14 1013.06 1012.92 1012.78 1012.69 1012.70 1012.81 1013.03 1013.31 1013.59 1013.83 1013.99
1010.54 1010.74 1010.65 1010.29 1009.71 1008.99 1008.24 1007.59 1007.11 1006.84 1006.79 1006.89 1007.06 1007.24 1007.35 1007.38 1007.35 1007.30 1007.32 1007.46 1007.77 1008.23 1008.82 1009.46 1010.07 1010.59 1010.96 1011.20 1011.34 1011.43 1011.55 1011.72 1011.97 1012.27 1012.58 1012.83 1012.98 1013.01 1012.92 1012.76 1012.58 1012.45 1012.42 1012.51 1012.69 1012.95 1013.22 1013.45 1013.61
1010.53 1010.49 1010.18 1009.62 1008.91 1008.13 1007.40 1006.80 1006.39 1006.20 1006.18 1006.28 1006.42 1006.53 1006.57 1006.56 1006.51 1006.50 1006.58 1006.81 1007.21 1007.75 1008.38 1009.02 1009.59 1010.04 1010.34 1010.52 1010.61 1010.70 1010.85 1011.08 1011.41 1011.81 1012.21 1012.54 1012.76 1012.83 1012.77 1012.60 1012.40 1012.24 1012.17 1012.21 1012.35 1012.57 1012.81 1013.02 1013.18
1010.65 1010.44 1009.95 1009.25 1008.43 1007.60 1006.86 1006.28 1005.91 1005.73 1005.71 1005.78 1005.88 1005.94 1005.95 1005.92 1005.90 1005.94 1006.10 1006.41 1006.88 1007.45 1008.08 1008.68 1009.17 1009.52 1009.72 1009.80 1009.84 1009.91 1010.07 1010.35 1010.76 1011.24 1011.73 1012.16 1012.45 1012.59 1012.57 1012.43 1012.24 1012.07 1011.96 1011.96 1012.05 1012.22 1012.42 1012.61 1012.74
1010.88 1010.55 1009.95 1009.14 1008.26 1007.40 1006.65 1006.09 1005.72 1005.55 1005.51 1005.55 1005.61 1005.65 1005.66 1005.65 1005.68 1005.79 1006.02 1006.40 1006.89 1007.46 1008.04 1008.55 1008.92 1009.14 1009.21 1009.19 1009.16 1009.18 1009.33 1009.63 1010.08 1010.62 1011.19 1011.69 1012.07 1012.28 1012.33 1012.25 1012.09 1011.93 1011.82 1011.79 1011.84 1011.96 1012.12 1012.26 1012.37
1011.16 1010.75 1010.08 1009.24 1008.34 1007.48 1006.75 1006.20 1005.85 1005.68 1005.64 1005.67 1005.72 1005.77 1005.81 1005.86 1005.95 1006.13 1006.42 1006.82 1007.31 1007.82 1008.31 1008.69 1008.92 1008.99 1008.93 1008.81 1008.68 1008.64 1008.75 1009.03 1009.48 1010.04 1010.63 1011.18 1011.62 1011.91 1012.04 1012.04 1011.95 1011.84 1011.75 1011.72 1011.74 1011.83 1011.93 1012.03 1012.09
1011.39 1010.94 1010.24 1009.41 1008.54 1007.74 1007.07 1006.58 1006.27 1006.13 1006.10 1006.15 1006.22 1006.30 1006.39 1006.50 1006.66 1006.90 1007.22 1007.61 1008.05 1008.48 1008.85 1009.09 1009.17 1009.11 1008.93 1008.69 1008.48 1008.37 1008.42 1008.64 1009.04 1009.56 1010.13 1010.68 1011.15 1011.50 1011.71 1011.80 1011.80 1011.77 1011.73 1011.72 1011.75 1011.81 1011.87 1011.92 1011.94
1011.51 1011.03 1010.35 1009.58 1008.80 1008.10 1007.55 1007.15 1006.92 1006.84 1006.85 1006.93 1007.05 1007.18 1007.32 1007.49 1007.69 1007.96 1008.28 1008.63 1009.00 1009.32 1009.55 1009.66 1009.62 1009.45 1009.18 1008.86 1008.58 1008.40 1008.36 1008.50 1008.80 1009.23 1009.72 1010.23 1010.69 1011.07 1011.35 1011.53 1011.64 1011.70 1011.74 1011.78 1011.83 1011.87 1011.91 1011.92 1011.89
1011.48 1011.00 1010.38 1009.71 1009.08 1008.55 1008.15 1007.89 1007.77 1007.76 1007.83 1007.95 1008.10 1008.27 1008.45 1008.65 1008.87 1009.13 1009.41 1009.70 1009.97 1010.18 1010.29 1010.29 1010.16 1009.92 1009.60 1009.25 1008.93 1008.69 1008.58 1008.61 1008.78 1009.07 1009.44 1009.86 1010.27 1010.64 1010.97 1011.23 1011.44 1011.60 1011.74 1011.84 1011.92 1011.97 1011.99 1011.96 1011.89
1011.33 1010.88 1010.36 1009.86 1009.42 1009.10 1008.88 1008.79 1008.78 1008.86 1008.97 1009.11 1009.27 1009.44 1009.62 1009.81 1010.02 1010.24 1010.45 1010.65 1010.82 1010.92 1010.94 1010.86 1010.69 1010.43 1010.11 1009.77 1009.45 1009.18 1008.99 1008.91 1008.94 1009.08 1009.30 1009.58 1009.91 1010.25 1010.58 1010.90 1011.20 1011.46 1011.67 1011.85 1011.97 1012.03 1012.05 1012.00 1011.91
1011.11 1010.73 1010.37 1010.08 1009.88 1009.80 1009.80 1009.86 1009.97 1010.09 1010.22 1010.35 1010.47 1010.59 1010.72 1010.85 1011.00 1011.14 1011.27 1011.37 1011.43 1011.44 1011.39 1011.28 1011.10 1010.87 1010.60 1010.31 1010.02 1009.75 1009.52 1009.35 1009.25 1009.23 1009.28 1009.42 1009.63 1009.90 1010.22 1010.57 1010.91 1011.24 1011.53 1011.76 1011.92 1012.01 1012.03 1011.98 1011.89
1010.90 1010.65 1010.49 1010.46 1010.54 1010.70 1010.91 1011.12 1011.31 1011.44 1011.53 1011.58 1011.60 1011.62 1011.65 1011.68 1011.73 1011.77 1011.81 1011.81 1011.79 1011.73 1011.63 1011.51 1011.36 1011.19 1011.00 1010.79 1010.57 1010.33 1010.09 1009.86 1009.64 1009.48 1009.38 1009.37 1009.46 1009.64 1009.91 1010.25 1010.61 1010.98 1011.30 1011.57 1011.76 1011.87 1011.90 1011.87 1011.79
1010.76 1010.70 1010.79 1011.04 1011.41 1011.82 1012.21 1012.54 1012.75 1012.84 1012.83 1012.74 1012.61 1012.48 1012.37 1012.28 1012.21 1012.15 1012.09 1012.02 1011.92 1011.82 1011.70 1011.59 1011.48 1011.38 1011.29 1011.18 1011.04 1010.85 1010.63 1010.36 1010.07 1009.80 1009.58 1009.44 1009.41 1009.49 1009.69 1009.98 1010.32 1010.68 1011.01 1011.29 1011.49 1011.60 1011.65 1011.64 1011.59
1010.74 1010.90 1011.28 1011.82 1012.46 1013.09 1013.63 1014.01 1014.20 1014.20 1014.04 1013.77 1013.46 1013.15 1012.88 1012.66 1012.48 1012.34 1012.21 1012.08 1011.94 1011.81 1011.68 1011.59 1011.53 1011.50 1011.48 1011.46 1011.40 1011.29 1011.10 1010.83 1010.51 1010.18 1009.87 1009.63 1009.49 1009.48 1009.59 1009.80 1010.09 1010.40 1010.70 1010.95 1011.13 1011.24 1011.29 1011.30 1011.29
1010.83 1011.23 1011.89 1012.71 1013.58 1014.39 1015.03 1015.42 1015.54 1015.40 1015.07 1014.61 1014.10 1013.62 1013.21 1012.88 1012.62 1012.43 1012.26 1012.10 1011.95 1011.81 1011.69 1011.61 1011.58 1011.59 1011.64 1011.68 1011.69 1011.64 1011.50 1011.26 1010.94 1010.58 1010.23 1009.92 1009.70 1009.60 1009.62 1009.75 1009.95 1010.18 1010.41 1010.61 1010.75 1010.84 1010.88 1010.90 1010.91
1011.00 1011.64 1012.54 1013.58 1014.64 1015.56 1016.24 1016.60 1016.62 1016.34 1015.83 1015.19 1014.53 1013.91 1013.39 1012.99 1012.70 1012.49 1012.33 1012.19 1012.04 1011.91 1011.79 1011.72 1011.69 1011.72 1011.79 1011.87 1011.93 1011.93 1011.83 1011.64 1011.36 1011.01 1010.64 1010.30 1010.03 1009.86 1009.79 1009.82 1009.91 1010.05 1010.18 1010.30 1010.38 1010.43 1010.44 1010.45 1010.47
1011.22 1012.05 1013.13 1014.32 1015.48 1016.46 1017.12 1017.42 1017.34 1016.92 1016.27 1015.50 1014.72 1014.03 1013.46 1013.05 1012.77 1012.60 1012.48 1012.37 1012.26 1012.14 1012.03 1011.94 1011.90 1011.91 1011.97 1012.06 1012.13 1012.16 1012.11 1011.96 1011.73 1011.42 1011.07 1010.73 1010.43 1010.20 1010.05 1009.98 1009.97 1010.00 1010.04 1010.06 1010.07 1010.05 1010.03 1010.01 1010.01
1011.47 1012.41 1013.58 1014.85 1016.03 1016.99 1017.61 1017.82 1017.65 1017.13 1016.39 1015.55 1014.73 1014.01 1013.46 1013.09 1012.87 1012.75 1012.69 1012.64 1012.57 1012.47 1012.35 1012.24 1012.16 1012.14 1012.16 1012.22 1012.28 1012.32 1012.30 1012.20 1012.02 1011.76 1011.46 1011.13 1010.83 1010.56 1010.35 1010.20 1010.10 1010.02 1009.96 1009.89 1009.82 1009.74 1009.66 1009.59 1009.55
1011.74 1012.71 1013.89 1015.13 1016.26 1017.14 1017.68 1017.82 1017.57 1017.00 1016.23 1015.38 1014.58 1013.91 1013.42 1013.12 1012.97 1012.94 1012.94 1012.94 1012.90 1012.81 1012.68 1012.54 1012.41 1012.33 1012.30 1012.31 1012.34 1012.37 1012.37 1012.30 1012.17 1011.97 1011.71 1011.43 1011.14 1010.86 1010.61 1010.40 1010.22 1010.06 1009.91 1009.77 1009.62 1009.48 1009.34 1009.21 1009.11
1012.05 1012.97 1014.08 1015.21 1016.22 1016.99 1017.43 1017.49 1017.20 1016.63 1015.88 1015.10 1014.37 1013.78 1013.37 1013.15 1013.08 1013.10 1013.15 1013.17 1013.14 1013.05 1012.89 1012.71 1012.53 1012.39 1012.29 1012.25 1012.24 1012.25 1012.25 1012.21 1012.12 1011.97 1011.77 1011.53 1011.26 1011.00 1010.74 1010.50 1010.27 1010.06 1009.85 1009.65 1009.45 1009.25 1009.05 1008.86 1008.68
1012.42 1013.24 1014.21 1015.18 1016.03 1016.66 1016.98 1016.98 1016.68 1016.15 1015.48 1014.78 1014.16 1013.66 1013.34 1013.17 1013.14 1013.18 1013.23 1013.25 1013.20 1013.07 1012.88 1012.65 1012.42 1012.22 1012.06 1011.96 1011.91 1011.89 1011.88 1011.85 1011.79 1011.69 1011.54 1011.35 1011.13 1010.90 1010.65 1010.41 1010.18 1009.95 1009.72 1009.49 1009.26 1009.02 1008.77 1008.52 1008.26
1012.87 1013.57 1014.35 1015.13 1015.80 1016.28 1016.50 1016.46 1016.17 1015.69 1015.12 1014.53 1014.00 1013.59 1013.32 1013.17 1013.13 1013.13 1013.13 1013.10 1012.99 1012.81 1012.57 1012.30 1012.02 1011.77 1011.57 1011.42 1011.33 1011.28 1011.25 1011.23 1011.18 1011.11 1011.01 1010.87 1010.70 1010.52 1010.32 1010.11 1009.90 1009.68 1009.46 1009.23 1008.99 1008.73 1008.45 1008.15 1007.83
Thickness
5854 5851 5846 5833 5813 5800 5801 5826 5845 5852 5855 5864 5869 5862 5850 5841 5831 5820 5845 5851 5845 5838 5833 5829 5826 5822 5818 5814 5811 5808 5806 5803 5801 5798 5796 5793 5790 5788 5785 5783 5780 5778 5775 5772 5770 5767 5765 5763 5762
5856 5852 5840 5824 5804 5784 5799 5826 5834 5848 5860 5870 5868 5861 5851 5843 5848 5844 5845 5847 5846 5839 5834 5830 5826 5822 5818 5814 5810 5807 5805 5802 5800 5797 5795 5792 5790 5787 5784 5782 5780 5777 5775 5772 5770 5767 5765 5763 5762
5857 5852 5829 5812 5797 5788 5800 5827 5835 5847 5865 5870 5861 5861 5853 5845 5849 5847 5849 5848 5843 5838 5833 5830 5826 5821 5817 5813 5810 5806 5804 5801 5799 5796 5794 5791 5789 5786 5784 5781 5779 5777 5774 5772 5770 5767 5765 5763 5761
5854 5838 5825 5805 5797 5810 5822 5834 5842 5843 5855 5864 5859 5848 5854 5862 5859 5854 5850 5846 5841 5835 5832 5829 5825 5820 5816 5812 5809 5805 5802 5799 5797 5794 5792 5789 5787 5785 5782 5780 5778 5776 5773 5771 5769 5767 5765 5763 5761
5849 5827 5808 5795 5804 5823 5837 5846 5844 5838 5843 5852 5854 5841 5843 5859 5863 5856 5850 5845 5840 5834 5831 5828 5824 5820 5815 5811 5808 5804 5801 5798 5795 5793 5790 5787 5785 5783 5781 5779 5777 5774 5772 5770 5768 5766 5764 5763 5761
5833 5819 5795 5788 5806 5828 5840 5851 5847 5839 5842 5849 5848 5839 5839 5854 5855 5851 5849 5844 5841 5836 5831 5827 5823 5819 5814 5810 5806 5803 5800 5796 5793 5791 5788 5785 5783 5781 5779 5777 5775 5773 5771 5769 5768 5766 5764 5762 5761
5825 5811 5797 5801 5807 5821 5840 5855 5849 5842 5841 5847 5853 5835 5837 5847 5854 5852 5848 5844 5839 5834 5830 5826 5822 5817 5813 5809 5805 5801 5798 5794 5791 5788 5785 5783 5781 5778 5777 5775 5773 5771 5770 5768 5767 5765 5764 5762 5760
5837 5813 5803 5802 5808 5819 5847 5855 5858 5851 5845 5859 5858 5836 5832 5846 5854 5851 5844 5840 5836 5832 5828 5825 5820 5816 5811 5807 5803 5799 5795 5792 5789 5786 5783 5780 5778 5776 5774 5772 5771 5769 5768 5767 5765 5764 5762 5760 5759
5843 5804 5791 5802 5811 5824 5846 5849 5855 5863 5854 5853 5858 5855 5858 5859 5854 5846 5839 5833 5830 5828 5825 5823 5818 5814 5809 5804 5801 5797 5793 5790 5787 5784 5781 5778 5775 5773 5771 5769 5768 5767 5766 5765 5764 5762 5760 5758 5757
5822 5794 5804 5824 5832 5834 5844 5848 5850 5846 5840 5842 5848 5857 5864 5860 5853 5845 5840 5833 5828 5826 5823 5821 5816 5812 5806 5802 5799 5795 5791 5788 5785 5782 5779 5775 5772 5770 5768 5767 5766 5765 5765 5764 5762 5760 5758 5756 5755
5821 5811 5824 5834 5843 5845 5844 5848 5854 5840 5829 5840 5844 5850 5857 5856 5851 5846 5843 5840 5834 5829 5823 5819 5814 5810 5805 5801 5797 5792 5789 5785 5782 5778 5776 5772 5769 5767 5765 5764 5763 5763 5763 5762 5760 5758 5756 5755 5754
5818 5824 5832 5837 5844 5844 5844 5848 5848 5845 5845 5859 5861 5860 5856 5852 5850 5847 5843 5841 5836 5827 5822 5818 5813 5807 5803 5799 5795 5791 5787 5783 5780 5776 5772 5769 5766 5764 5763 5762 5762 5761 5760 5759 5757 5756 5754 5753 5752
5816 5822 5832 5839 5841 5844 5845 5843 5845 5848 5860 5861 5857 5853 5849 5849 5848 5848 5845 5839 5832 5825 5820 5813 5807 5802 5798 5794 5791 5788 5785 5782 5779 5774 5770 5766 5764 5762 5760 5759 5759 5758 5757 5755 5754 5753 5752 5751 5750
5813 5818 5825 5834 5838 5843 5836 5836 5838 5844 5856 5850 5844 5838 5839 5840 5840 5838 5833 5829 5824 5819 5814 5811 5804 5798 5794 5789 5785 5783 5781 5778 5775 5772 5768 5764 5762 5760 5757 5756 5755 5754 5753 5752 5751 5749 5748 5748 5748
5814 5806 5811 5824 5830 5834 5829 5816 5828 5843 5846 5837 5833 5830 5829 5830 5829 5824 5821 5818 5814 5809 5804 5800 5795 5789 5786 5783 5779 5777 5774 5772 5769 5766 5763 5760 5758 5756 5754 5752 5750 5750 5749 5748 5747 5746 5745 5744 5744
5797 5788 5781 5808 5820 5827 5812 5792 5824 5838 5834 5825 5824 5820 5815 5811 5812 5812 5812 5807 5801 5793 5790 5785 5780 5775 5771 5772 5770 5768 5766 5764 5762 5759 5757 5754 5752 5751 5749 5747 5745 5746 5745 5744 5743 5741 5740 5740 5740
5770 5763 5770 5793 5817 5819 5806 5791 5815 5827 5824 5816 5812 5808 5803 5798 5798 5799 5800 5793 5788 5780 5775 5768 5766 5759 5759 5760 5759 5757 5757 5756 5755 5753 5750 5749 5746 5745 5744 5742 5741 5741 5740 5739 5739 5737 5736 5735 5736
5755 5762 5770 5779 5804 5809 5795 5791 5803 5810 5809 5801 5798 5795 5789 5786 5784 5786 5786 5781 5778 5771 5765 5757 5755 5751 5754 5752 5747 5746 5745 5746 5748 5745 5743 5743 5742 5741 5740 5737 5737 5736 5734 5733 5733 5732 5732 5732 5733
5776 5772 5770 5783 5803 5795 5782 5779 5785 5791 5790 5784 5781 5777 5774 5772 5774 5776 5772 5770 5765 5758 5753 5747 5740 5743 5743 5742 5737 5734 5734 5737 5739 5738 5739 5738 5736 5736 5734 5733 5732 5732 5729 5728 5728 5727 5727 5727 5729
5778 5768 5768 5780 5796 5788 5773 5767 5771 5772 5770 5769 5766 5764 5762 5761 5761 5764 5761 5757 5751 5747 5743 5737 5735 5736 5738 5736 5734 5734 5732 5731 5732 5733 5733 5733 5732 5731 5730 5729 5728 5727 5725 5724 5724 5723 5721 5722 5724
5774 5769 5769 5771 5778 5779 5770 5752 5753 5757 5759 5760 5757 5754 5752 5750 5748 5748 5748 5745 5739 5738 5735 5732 5728 5727 5727 5728 5728 5726 5724 5723 5723 5724 5724 5726 5726 5726 5725 5725 5724 5722 5720 5719 5719 5719 5716 5714 5717
5762 5781 5780 5773 5757 5742 5753 5726 5735 5739 5739 5741 5741 5740 5739 5739 5738 5735 5735 5733 5730 5727 5725 5722 5721 5718 5717 5718 5718 5715 5712 5709 5711 5713 5716 5718 5719 5719 5719 5719 5719 5717 5716 5715 5715 5715 5714 5711 5709
5775 5786 5777 5768 5753 5738 5736 5720 5719 5728 5720 5721 5726 5728 5727 5727 5727 5724 5724 5722 5720 5718 5715 5712 5710 5708 5707 5707 5706 5705 5704 5703 5703 5705 5706 5707 5709 5711 5712 5712 5712 5710 5710 5710 5710 5710 5709 5708 5707
5787 5775 5759 5744 5731 5714 5721 5712 5705 5711 5711 5712 5716 5717 5716 5718 5716 5714 5714 5713 5710 5707 5705 5702 5699 5697 5696 5695 5693 5692 5690 5691 5692 5692 5692 5694 5696 5698 5701 5703 5703 5704 5704 5704 5704 5705 5704 5704 5704
5773 5737 5711 5708 5696 5698 5716 5707 5700 5711 5713 5711 5709 5709 5709 5710 5708 5705 5703 5702 5699 5697 5693 5690 5687 5684 5683 5682 5680 5678 5677 5677 5677 5677 5678 5679 5681 5683 5685 5689 5692 5694 5696 5697 5697 5698 5698 5699 5699
5764 5741 5707 5695 5691 5696 5707 5699 5699 5710 5710 5710 5708 5707 5704 5701 5699 5698 5696 5692 5689 5687 5684 5680 5675 5671 5669 5667 5665 5664 5663 5662 5662 5662 5663 5664 5665 5667 5671 5673 5677 5681 5685 5687 5689 5691 5692 5693 5694
5756 5743 5739 5713 5708 5695 5693 5695 5698 5704 5703 5702 5701 5699 5694 5692 5691 5688 5685 5681 5678 5675 5672 5668 5664 5660 5657 5654 5651 5648 5647 5646 5645 5646 5647 5648 5650 5653 5655 5658 5661 5666 5670 5674 5678 5681 5684 5686 5688
5765 5751 5727 5710 5693 5683 5690 5688 5686 5690 5691 5693 5691 5688 5686 5683 5680 5677 5674 5670 5666 5662 5657 5653 5649 5644 5641 5638 5635 5634 5631 5630 5629 5629 5629 5631 5633 5635 5638 5642 5645 5649 5655 5660 5664 5669 5674 5677 5680
5753 5745 5727 5708 5700 5682 5675 5680 5701 5694 5691 5687 5684 5681 5678 5675 5672 5668 5665 5662 5656 5650 5643 5636 5631 5626 5622 5619 5617 5615 5614 5613 5612 5611 5612 5613 5615 5618 5621 5625 5628 5633 5638 5644 5650 5656 5662 5666 5671
5754 5744 5726 5703 5695 5688 5673 5675 5704 5695 5689 5682 5676 5673 5670 5666 5662 5658 5654 5648 5641 5635 5629 5622 5615 5609 5605 5601 5596 5593 5592 5590 5590 5591 5592 5594 5597 5600 5603 5606 5610 5616 5622 5628 5633 5640 5648 5654 5660